Weather observations for the past three days for
Indianapolis Regional Airport
Imperial (Metric)
Date Time (edt) Wind (mph) Vis. (mi.) Weather Sky Cond. Temperature (ºF) Relative Humidity Wind Chill (°F) Heat Index (°F) Pressure Precipitation (in)
Air Dwpt 6 hour altimeter (in) sea level (mb) 1 hr 3 hr 6 hr
Max. Min.
12 17:35 N 6 9.00 Fair CLR 85.5 70 60% 90 30.12 0.0
12 17:15 N 5 9.00 Fair CLR 85.1 71.1 63% 90 30.11 0.0
12 16:55 NE 5 9.00 Fair CLR 84.4 70.7 64% 89 30.11 0.0
12 16:35 NE 6 9.00 A Few Clouds FEW055 84.7 72.1 66% 91 30.11 0.0
12 16:15 N 5 10.00 Mostly Cloudy FEW041 SCT050 SCT065 BKN270 BKN360 85.5 70.7 61% 91 30.12 0.0
12 15:55 Vrbl 3 9.00 Partly Cloudy SCT041 83.8 70 63% 88 30.11 0.0
12 15:35 Calm 10.00 Partly Cloudy SCT070 84.6 70.5 63% 89 30.12 0.0
12 15:15 NE 3 10.00 Mostly Cloudy FEW035 BKN070 84 68.9 61% 88 30.12 0.0
12 14:55 W 7 10.00 Mostly Cloudy BKN035 BKN280 83.8 71.4 66% 89 30.12 0.0
12 14:35 Calm 10.00 A Few Clouds FEW280 83.7 68.2 60% 87 30.13 0.0
12 14:15 Calm 10.00 Partly Cloudy FEW075 SCT280 SCT350 SCT370 82.9 70.7 67% 87 30.13 0.0
12 13:55 SW 3 10.00 Mostly Cloudy FEW047 SCT070 BKN240 BKN320 BKN360 81.1 71.1 72% 85 30.13 0.0
12 13:35 Calm 10.00 Mostly Cloudy SCT038 BKN048 BKN060 BKN370 80.6 71.1 73% 84 30.14 0.0
12 13:15 S 3 10.00 Partly Cloudy SCT037 81 71.8 74% 85 30.14 0.0
12 12:55 Calm 10.00 A Few Clouds FEW030 81.9 70.5 69% 86 30.15 0.0
12 12:35 Calm 10.00 A Few Clouds FEW028 82.9 70.5 66% 87 30.15 0.0
12 12:15 Calm 10.00 A Few Clouds FEW026 82.2 70.5 68% 86 30.15 0.0
12 11:55 Calm 10.00 Fair CLR 80.4 70.3 71% 84 30.15 0.0
12 11:35 S 3 10.00 Fair CLR 78.8 71.4 78% 82 30.14 0.0
12 11:15 Calm 10.00 A Few Clouds FEW017 79.5 71.8 77% 83 30.14 0.0
12 10:55 Calm 10.00 A Few Clouds FEW016 79.5 72.1 78% 83 30.14 0.0
12 10:35 W 5 10.00 Fair CLR 78.3 72.7 83% 81 30.14 0.0
12 09:55 Calm 10.00 Partly Cloudy SCT049 73.9 70.9 90% 30.14 0.0
12 09:35 Calm 10.00 A Few Clouds FEW050 72.9 70.7 93% 30.14 0.0
12 09:15 Calm 10.00 Partly Cloudy SCT048 71.8 70 94% 30.14 0.0
12 08:55 Calm 10.00 A Few Clouds FEW046 70.5 69.8 98% 30.14 0.0
12 08:35 Calm 8.00 Fair CLR 69.1 69.1 100% 30.13 0.0
12 08:15 Calm 8.00 Fair CLR 68 68 100% 30.13 0.0
12 07:55 Calm 9.00 Fair CLR 67.3 67.3 100% 30.12 0.0
12 07:35 Calm 8.00 Fair CLR 66.2 66.2 100% 30.11 0.0
12 07:15 Calm 7.00 Fair CLR 65.3 65.3 100% 30.11 0.0
12 06:55 Calm 6.00 Fog/Mist CLR 64.8 64.8 100% 30.1 0.0
12 06:35 Calm 5.00 Fog/Mist CLR 64.9 64.9 100% 30.1 0.0
12 06:15 E 3 6.00 Fog/Mist NULL 64.2 64.2 100% 30.1 0.0
12 05:55 Calm 1.25 Fog/Mist NULL 63.3 63.3 100% 30.09 0.0
12 05:35 Calm 0.50 Fog NULL 62.6 62.6 100% 30.09 0.0
12 05:15 Calm 0.50 Fog NULL 62.6 62.6 100% 30.08 0.0
12 04:55 Calm 1.00 Fog/Mist NULL 63 63 100% 30.08 0.0
12 04:35 SE 3 1.75 Fog/Mist NULL 63 63 100% 30.08 0.0
12 04:15 Calm 1.25 Fog/Mist NULL 63.3 63.3 100% 30.08 0.0
12 03:55 NE 3 0.75 Fog/Mist NULL 62.8 62.8 100% 30.08 0.0
12 03:35 N 3 2.50 Fog/Mist CLR 63.5 63.5 100% 30.09 0.0
12 03:15 Calm 1.25 Fog/Mist CLR 63.9 63.9 100% 30.09 0.0
12 02:55 Calm 1.75 Fog/Mist NULL 64.2 64.2 100% 30.09 0.0
12 02:35 Calm 1.00 Fog/Mist NULL 64.4 64.4 100% 30.09 0.0
12 02:15 Calm 0.75 Fog/Mist NULL 64.8 64.8 100% 30.09 0.0
12 01:55 N 3 0.25 Fog NULL 65.1 65.1 100% 30.1 0.0
12 01:35 Calm 1.00 Fog/Mist NULL 64.6 64.6 100% 30.1 0.0
12 01:15 Calm 0.50 Fog NULL 64.9 64.9 100% 30.1 0.0
12 00:55 Calm 0.25 Fog NULL 66.2 66.2 100% 30.1 0.0
12 00:35 Calm 0.75 Fog/Mist NULL 66 66 100% 30.09 0.0
12 00:15 Calm 6.00 Fog/Mist NULL 66.7 66.7 100% 30.09 0.0
11 23:55 Calm 1.00 Fog/Mist NULL 66.6 66.6 100% 30.09 0.0
11 23:35 Calm 6.00 Fog/Mist CLR 66.2 66.2 100% 30.09 0.0
11 23:15 Calm 1.75 Fog/Mist CLR 67.1 67.1 100% 30.09 0.0
11 22:55 Calm 8.00 Fair CLR 66.7 66.7 100% 30.08 0.0
11 22:35 Calm 9.00 Fair CLR 67.8 67.8 100% 30.09 0.0
11 22:15 Calm 10.00 Fair CLR 68.2 68.2 100% 30.08 0.0
11 21:55 Calm 8.00 Fair CLR 67.5 67.5 100% 30.08 0.0
11 21:35 Calm 9.00 A Few Clouds FEW150 68.7 68.7 100% 30.08 0.0
11 21:15 Calm 9.00 Partly Cloudy SCT150 69.3 69.3 100% 30.08 0.0
11 20:55 Calm 10.00 A Few Clouds FEW019 69.6 69.6 100% 30.08 0.0
11 20:35 NE 5 10.00 A Few Clouds FEW019 69.8 69.4 99% 30.08 0.0
11 20:15 N 8 10.00 NULL NULL 70.2 69.8 99% 30.08 0.0
11 19:55 N 7 6.00 Light Rain Fog/Mist NULL 70 69.4 98% 30.08 0.0
11 19:35 N 8 7.00 Light Rain CLR 70.3 69.8 98% 30.08 0.0
11 19:15 N 10 6.00 Light Rain Fog/Mist NULL 71.1 70.5 98% 30.07 0.0
11 18:55 W 12 6.00 Light Rain Fog/Mist BKN043 BKN060 73.8 71.8 94% 30.09 0.0
11 18:35 N 6 8.00 Partly Cloudy SCT060 75.6 71.2 87% 76 30.06 0.0
11 18:15 N 6 10.00 Fair CLR 75.9 71.6 87% 76 30.06 0.0
11 17:55 N 6 10.00 Fair CLR 75.4 71.6 88% 75 30.05 0.0
11 17:35 NW 3 8.00 Light Rain NULL 73.2 70.9 92% 30.06 0.0
11 17:15 W 15 G 23 3.00 Light Rain Fog/Mist NULL 74.1 71.1 90% 30.08 0.0
11 16:55 E 6 9.00 Thunderstorm SCT120 76.8 70.3 80% 78 30.06 0.0
11 16:35 E 8 10.00 Fair CLR 79.2 70 74% 82 30.05 0.0
11 16:15 E 7 10.00 A Few Clouds FEW300 78.6 71.8 80% 81 30.06 0.0
11 15:55 SE 9 10.00 Fair CLR 78.1 72 82% 80 30.06 0.0
11 15:35 E 10 10.00 A Few Clouds FEW340 77.7 72.5 84% 80 30.06 0.0
11 15:15 SE 7 10.00 A Few Clouds FEW130 77.2 72.1 85% 79 30.06 0.0
11 14:55 Vrbl 5 10.00 NULL NULL 75 70.9 87% 75 30.07 0.0
11 14:35 E 9 0.75 Heavy Rain NULL 71.8 66.2 83% 30.07 0.0
11 14:15 Vrbl 7 1.75 Rain Fog/Mist NULL 74.7 70.9 88% 30.06 0.0
11 13:55 E 5 5.00 Mostly Cloudy with Haze FEW021 BKN048 BKN080 BKN100 79.9 71.2 75% 83 30.07 0.0
11 13:35 E 6 10.00 Mostly Cloudy FEW029 SCT036 SCT100 BKN310 80.6 71.2 73% 84 30.07 0.0
11 13:15 NE 5 10.00 Partly Cloudy SCT029 81.9 70.5 69% 86 30.07 0.0
11 12:55 Calm 10.00 Mostly Cloudy BKN029 80.2 69.6 70% 83 30.08 0.0
11 12:35 Calm 10.00 Partly Cloudy FEW029 SCT340 81 70 69% 84 30.08 0.0
11 12:15 S 5 10.00 Fair CLR 79.3 70.5 75% 82 30.09 0.0
11 11:55 Calm 10.00 Fair CLR 78.4 69.4 74% 81 30.09 0.0
11 11:35 SE 5 10.00 Fair CLR 78.1 68.9 73% 80 30.09 0.0
11 11:15 S 5 10.00 Partly Cloudy FEW040 SCT050 77 70.3 80% 79 30.09 0.0
11 10:55 Vrbl 5 10.00 Partly Cloudy SCT055 76.1 70.3 82% 77 30.09 0.0
11 10:35 S 6 10.00 Fair CLR 75.9 69.6 81% 77 30.09 0.0
11 10:15 S 6 10.00 A Few Clouds FEW060 75.4 69.6 82% 76 30.09 0.0
11 09:55 S 7 10.00 Fair CLR 74.1 69.3 85% 30.09 0.0
11 09:35 SE 8 10.00 Mostly Cloudy SCT036 BKN045 72.1 68.2 87% 30.09 0.0
11 09:15 SE 5 10.00 Overcast OVC036 71.6 68.7 91% 30.09 0.0
11 08:55 SE 6 10.00 Mostly Cloudy BKN035 70.3 68 92% 30.09 0.0
11 08:35 E 3 10.00 Partly Cloudy SCT035 69.8 68.5 96% 30.09 0.0
11 08:15 Calm 10.00 Fair CLR 67.1 67.1 100% 30.08 0.0
11 07:55 Calm 10.00 Partly Cloudy SCT047 SCT120 66.7 66.7 100% 30.07 0.0
11 07:35 Calm 7.00 Partly Cloudy SCT120 65.8 65.8 100% 30.06 0.0
11 07:15 E 3 8.00 Partly Cloudy SCT120 65.1 65.1 100% 30.05 0.0
11 06:55 SE 3 8.00 A Few Clouds FEW110 63.9 63.9 100% 30.05 0.0
11 06:35 E 3 6.00 Fog/Mist CLR 63.3 63.3 100% 30.04 0.0
11 06:15 SE 3 5.00 Fog/Mist CLR 61.9 61.9 100% 30.04 0.0
11 05:55 SE 3 8.00 Fair CLR 61.9 61.9 100% 30.03 0.0
11 05:35 E 3 6.00 Fog/Mist CLR 62.1 62.1 100% 30.03 0.0
11 05:15 Calm 5.00 Fog/Mist CLR 62.4 62.4 100% 30.03 0.0
11 04:55 Calm 6.00 Fog/Mist CLR 63.1 63.1 100% 30.02 0.0
11 04:35 Calm 8.00 Fair CLR 62.8 62.8 100% 30.03 0.0
11 04:15 Calm 9.00 Fair CLR 63.9 63.9 100% 30.02 0.0
11 03:55 Calm 10.00 Fair CLR 63.7 63.7 100% 30.03 0.0
11 03:35 Calm 9.00 Fair CLR 64.9 64.9 100% 30.02 0.0
11 03:15 Calm 10.00 Fair CLR 66.7 66.4 99% 30.02 0.0
11 02:35 Calm 10.00 Fair CLR 66 65.7 99% 30.02 0.0
11 02:15 Calm 10.00 Fair CLR 64.6 64.4 99% 30.02 0.0
11 01:35 W 3 10.00 Fair CLR 66.9 66 97% 30.01 0.0
11 01:15 Calm 10.00 Fair CLR 66 65.5 98% 30.02 0.0
11 00:55 W 5 10.00 Fair CLR 66.9 65.5 95% 30.02 0.0
11 00:35 W 3 10.00 Fair CLR 67.3 65.8 95% 30.02 0.0
11 00:15 W 5 10.00 Fair CLR 68 65.7 92% 30.01 0.0
10 23:55 SW 5 10.00 Fair CLR 66.6 65.1 95% 30.01 0.0
10 23:35 W 3 10.00 Fair CLR 67.8 65.5 92% 30.01 0.0
10 23:15 W 3 10.00 Fair CLR 67.6 65.3 92% 30.01 0.0
10 22:55 W 6 10.00 Fair CLR 67.8 65.5 92% 30.01 0.0
10 22:35 W 5 10.00 Fair CLR 68.5 65.8 91% 30 0.0
10 22:15 W 5 10.00 Fair CLR 70 66 87% 29.99 0.0
10 21:55 W 6 10.00 Fair CLR 69.3 66 89% 29.99 0.0
10 21:35 W 7 10.00 Fair CLR 73.4 65.5 76% 29.99 0.0
10 21:15 W 6 10.00 Fair CLR 73.6 66 77% 29.98 0.0
10 20:55 W 8 10.00 A Few Clouds FEW049 76.5 65.5 69% 78 29.97 0.0
10 20:35 W 9 10.00 Mostly Cloudy FEW044 BKN060 78.1 66 67% 80 29.97 0.0
10 20:15 NW 7 10.00 Partly Cloudy FEW045 SCT055 78.6 65.5 64% 81 29.97 0.0
10 19:55 W 9 10.00 Mostly Cloudy SCT046 BKN055 78.8 65.7 64% 81 29.96 0.0
10 19:35 W 7 10.00 A Few Clouds FEW045 77.5 65.5 67% 79 29.96 0.0
10 19:15 W 12 10.00 A Few Clouds FEW044 80.4 65.5 60% 82 29.96 0.0
10 18:55 W 8 10.00 Fair CLR 79.7 66.2 63% 82 29.96 0.0
10 18:35 W 9 10.00 Partly Cloudy SCT043 79.9 65.7 62% 82 29.95 0.0
10 18:15 W 13 10.00 A Few Clouds FEW043 78.8 64.8 62% 81 29.95 0.0
10 17:55 W 9 10.00 Fair CLR 80.8 65.7 60% 83 29.95 0.0
10 17:35 W 10 10.00 Fair CLR 80.8 65.1 59% 83 29.95 0.0
10 17:15 W 10 10.00 A Few Clouds FEW049 80.8 63.9 56% 82 29.95 0.0
10 16:55 NW 13 10.00 Partly Cloudy SCT050 81.5 63.1 54% 83 29.94 0.0
10 16:35 NW 12 10.00 Fair CLR 81 62.8 54% 82 29.94 0.0
10 16:15 NW 15 10.00 A Few Clouds FEW046 80.4 62.2 54% 82 29.94 0.0
10 15:55 NW 16 10.00 A Few Clouds FEW046 79.9 62.8 56% 81 29.94 0.0
10 15:35 NW 14 10.00 A Few Clouds FEW043 79.5 63.1 57% 81 29.95 0.0
10 15:15 NW 15 10.00 Partly Cloudy SCT044 SCT060 78.8 63.9 60% 80 29.94 0.0
10 14:55 N 16 G 23 10.00 Mostly Cloudy SCT043 BKN060 77.9 63 60% 80 29.94 0.0
10 14:35 NW 18 G 25 10.00 Mostly Cloudy SCT045 BKN060 BKN370 78.1 62.2 58% 80 29.93 0.0
10 14:15 NW 18 10.00 Mostly Cloudy FEW038 SCT049 BKN055 BKN250 77.9 62.8 60% 80 29.92 0.0
10 13:55 NW 18 G 25 10.00 Mostly Cloudy SCT036 BKN048 BKN370 76.5 63.5 64% 78 29.92 0.0
10 13:35 NW 18 G 28 10.00 Mostly Cloudy SCT035 BKN050 75.2 64.6 70% 77 29.91 0.0
10 13:15 W 18 G 26 10.00 Mostly Cloudy SCT031 BKN041 BKN049 74.5 64.2 70% 29.9 0.0
10 12:55 W 16 G 26 10.00 Overcast BKN032 OVC046 73.8 64.4 73% 29.9 0.0
10 12:35 NW 20 G 28 10.00 Mostly Cloudy FEW028 SCT035 BKN043 BKN050 72.9 63.9 74% 29.89 0.0
10 12:15 NW 21 G 28 10.00 Overcast and Breezy FEW023 BKN035 BKN043 OVC055 70.7 63.5 78% 29.88 0.0
10 11:55 NW 23 G 30 10.00 Mostly Cloudy and Breezy SCT023 BKN035 70 63.5 80% 29.87 0.0
10 11:35 W 22 7.00 Mostly Cloudy and Breezy BKN022 BKN250 67.3 63.9 89% 29.87 0.0
10 11:15 NW 17 G 26 7.00 Overcast OVC019 67.3 63.1 87% 29.85 0.0
10 10:55 W 18 G 30 10.00 Overcast SCT018 OVC027 67.8 63.5 86% 29.83 0.0
10 10:35 W 17 G 29 10.00 Overcast SCT022 OVC029 68.9 61.9 78% 29.82 0.0
10 10:15 NW 21 G 36 10.00 Overcast and Breezy OVC020 67.5 61.7 82% 29.81 0.0
10 09:55 NW 25 G 37 10.00 Overcast and Breezy OVC018 66.9 61.9 84% 29.79 0.0
10 09:35 NW 23 G 35 10.00 Overcast and Breezy OVC017 66.4 62.1 86% 29.77 0.0
10 09:15 W 23 G 33 9.00 Overcast and Breezy OVC014 66 62.4 88% 29.75 0.0
10 08:55 NW 25 G 33 9.00 Overcast and Breezy OVC012 66 63.1 91% 29.73 0.0
10 08:35 W 23 G 32 10.00 Overcast and Breezy OVC012 66 64.2 94% 29.71 0.0
10 08:15 W 22 G 26 10.00 Overcast and Breezy OVC013 66.4 64.6 94% 29.7 0.0
10 07:55 W 18 9.00 Overcast OVC011 65.8 64.6 96% 29.68 0.0
10 07:35 NW 21 G 28 8.00 Overcast and Breezy OVC011 65.3 64.2 96% 29.67 0.0 0.01
10 07:15 NW 22 G 29 7.00 Breezy NULL 64.9 64 97% 29.64 0.0 0.01
10 06:55 NW 20 G 26 4.00 Light Rain Fog/Mist NULL 65.7 65.1 98% 29.64 0.0
10 06:35 W 22 G 29 4.00 Light Rain Fog/Mist and Breezy NULL 67.3 66.9 99% 29.63 0.0
10 06:15 SW 9 9.00 NULL NULL 67.8 67.6 99% 29.62 0.0
10 05:55 SW 12 10.00 NULL NULL 68.4 67.6 98% 29.62 0.0
10 05:35 SW 16 7.00 Light Rain NULL 68.7 68.4 99% 29.61 0.0
10 05:15 SW 13 10.00 Mostly Cloudy SCT013 BKN031 70.2 69.3 97% 29.61 0.0
10 04:55 S 12 10.00 Mostly Cloudy SCT011 BKN017 70.3 69.8 98% 29.61 0.0
10 04:35 S 10 10.00 A Few Clouds FEW011 70.3 70.2 99% 29.62 0.0
10 04:15 S 12 10.00 A Few Clouds FEW010 70.3 70.3 100% 29.62 0.0
10 03:55 S 8 9.00 NULL NULL 70.2 70.2 100% 29.63 0.0
10 03:35 S 7 6.00 Light Rain Fog/Mist NULL 70.2 70.2 100% 29.63 0.0
10 03:15 S 6 10.00 Overcast SCT008 OVC013 70.5 70.2 99% 29.64 0.0
10 02:55 S 10 10.00 Overcast FEW009 BKN013 OVC021 70.5 70.3 99% 29.65 0.0
10 02:35 S 8 10.00 NULL NULL 70.5 70.5 100% 29.65 0.0
10 02:15 S 7 10.00 NULL NULL 70.5 70.5 100% 29.66 0.0
10 01:55 S 8 10.00 Mostly Cloudy FEW019 BKN023 BKN030 BKN036 70.9 70.9 100% 29.67 0.0
10 01:35 S 10 10.00 Overcast SCT011 BKN018 BKN023 OVC030 71.2 70.9 99% 29.68 0.0
10 01:15 S 8 10.00 Overcast BKN010 OVC017 71.6 71.4 99% 29.68 0.0
10 00:55 S 7 10.00 Overcast BKN016 OVC022 71.8 71.8 100% 29.68 0.0
10 00:35 S 7 10.00 Mostly Cloudy SCT021 BKN085 71.8 71.8 100% 29.69 0.0
10 00:15 SE 5 10.00 Mostly Cloudy BKN080 71.4 71.4 100% 29.67 0.0
09 23:55 SE 5 10.00 Partly Cloudy SCT070 72 72 100% 29.68 0.0
09 23:35 Calm 8.00 Light Rain FEW043 72.7 71.6 96% 29.69 0.0
09 23:15 SW 10 10.00 NULL NULL 73.9 72.5 95% 29.72 0.0
09 22:55 S 10 3.00 Light Rain Fog/Mist NULL 74.3 73.9 99% 29.72 0.0
09 22:35 E 12 7.00 Light Rain NULL 73.8 73.4 99% 29.69 0.0
09 22:15 E 13 2.00 Heavy Rain Fog/Mist NULL 73.2 73.2 100% 29.71 0.0
09 21:55 NE 16 3.00 Heavy Rain Fog/Mist NULL 73 73 100% 29.69 0.0
09 21:35 NE 8 4.00 Light Rain Fog/Mist Thunderstorm in Vicinity NULL 73 72.5 98% 29.72 0.0
09 21:15 NE 10 6.00 Light Rain Fog/Mist NULL 73 72.1 97% 29.73 0.0
09 20:55 NE 9 9.00 Partly Cloudy FEW027 SCT034 73 72.1 97% 29.75 0.0
09 20:35 NE 9 5.00 Light Rain Fog/Mist SCT030 BKN039 73.4 71.6 94% 29.75 0.0
09 20:15 NE 12 7.00 Light Rain SCT042 BKN070 74.3 71.1 90% 29.77 0.0
09 19:55 NE 12 10.00 Mostly Cloudy FEW039 SCT080 BKN100 75 70 84% 75 29.78 0.0
09 19:35 NE 15 10.00 Mostly Cloudy SCT039 BKN100 75.6 68.9 80% 76 29.78 0.0
09 19:15 NE 15 10.00 A Few Clouds FEW043 76.1 68.7 78% 77 29.79 0.0
09 18:55 NE 10 10.00 Partly Cloudy SCT045 75.9 69.1 79% 77 29.8 0.0
09 18:35 NE 12 10.00 Mostly Cloudy BKN045 BKN055 75.9 68.9 79% 77 29.82 0.0
09 18:15 NE 14 10.00 Overcast OVC047 75.9 68.9 79% 77 29.83 0.0
09 17:55 NE 12 10.00 Mostly Cloudy BKN050 76.3 68.4 77% 78 29.84 0.0
Date Time (edt) Wind (mph) Vis. (mi.) Weather Sky Cond. Air Dwpt Max. Min. Relative Humidity Wind Chill (°F) Heat Index (°F) altimeter (in) sea level (mb) 1 hr 3 hr 6 hr
6 hour
Temperature (ºF) Pressure Precipitation (in)